This is the latest recevied weather packets stored in our database for station/object DC1NF-6. If no packets are shown the sender has not sent any weather packets the latest 10 day(s).
| Time | Temp. | Humidity | Pressure | Rain* | Wind** | Luminosity | Snow |
|---|---|---|---|---|---|---|---|
| 1777559771 | 16.11° C | 26% | 1027.3 hPa | 0 mm | - | - | - |
| 1777559168 | 16.11° C | 25% | 1027.5 hPa | 0 mm | - | - | - |
| 1777558559 | 16.11° C | 25% | 1027.5 hPa | 0 mm | - | - | - |
| 1777557955 | 16.67° C | 25% | 1027.6 hPa | 0 mm | - | - | - |
| 1777557346 | 16.67° C | 24% | 1027.7 hPa | 0 mm | - | - | - |
| 1777556736 | 17.22° C | 24% | 1027.6 hPa | 0 mm | - | - | - |
| 1777556132 | 17.22° C | 23% | 1027.8 hPa | 0 mm | - | - | - |
| 1777555524 | 17.78° C | 23% | 1027.7 hPa | 0 mm | - | - | - |
| 1777554920 | 17.78° C | 22% | 1027.9 hPa | 0 mm | - | - | - |
| 1777554372 | 17.78° C | 23% | 1028 hPa | 0 mm | - | - | - |
| 1777553768 | 17.78° C | 22% | 1028 hPa | 0 mm | - | - | - |
| 1777553159 | 18.33° C | 24% | 1028.1 hPa | 0 mm | - | - | - |
| 1777552555 | 17.78° C | 24% | 1028.2 hPa | 0 mm | - | - | - |
| 1777551946 | 17.78° C | 25% | 1028.3 hPa | 0 mm | - | - | - |
| 1777551336 | 17.78° C | 25% | 1028.4 hPa | 0 mm | - | - | - |
| 1777550732 | 17.22° C | 25% | 1028.5 hPa | 0 mm | - | - | - |
| 1777550123 | 17.78° C | 25% | 1028.6 hPa | 0 mm | - | - | - |
| 1777549519 | 17.22° C | 25% | 1028.7 hPa | 0 mm | - | - | - |
| 1777548970 | 16.67° C | 25% | 1028.8 hPa | 0 mm | - | - | - |
| 1777548366 | 16.67° C | 27% | 1028.8 hPa | 0 mm | - | - | - |
| 1777547757 | 16.11° C | 26% | 1028.9 hPa | 0 mm | - | - | - |
| 1777547149 | 16.67° C | 27% | 1029 hPa | 0 mm | - | - | - |
| 1777546545 | 16.11° C | 29% | 1029.1 hPa | 0 mm | - | - | - |
| 1777545937 | 16.11° C | 28% | 1029.1 hPa | 0 mm | - | - | - |
| 1777545333 | 15° C | 27% | 1029.1 hPa | 0 mm | - | - | - |
* Rain latest hour (hover to see other rain measurements)
** Current wind speed in m/s (hover to see current wind gust speed)